Location: Laterina
(43.5167°N, 11.7167°E)
Time: 23:13:16
(UTC+00:00)

Cosmos 1125 Rocket - Pass Details

Date: 25 June 2021
Orbit: 757 x 780 km, 74.0° (Epoch: 29 July)

Event Time Altitude Azimuth Distance (km) Brightness Sun altitude
Rises 23:06:13 0° 352° (N) 3,248 8.2 -23.1°
Reaches altitude 10° 23:09:28 10° 13° (NNE) 2,322 7.0 -23.1°
Maximum altitude 23:12:50 17° 53° (NE) 1,892 5.9 -23.1°
Drops below altitude 10° 23:16:11 10° 92° (E) 2,323 6.0 -23.1°
Enters shadow 23:17:50 - 105° (ESE) 2,761 6.2 -23.1°
